Weather History for Glenwood, MN

Change the Weather History Date:

Thursday, July 24, 2014

  Actual Average Record
Temperature  
Mean Temperature 66 °F -  
Max Temperature 78 °F 82 °F 93 °F (1976)
Min Temperature 55 °F 59 °F 47 °F (1990)
Cooling Degree Days 2    
Growing Degree Days 16 (Base 50)    
Moisture  
Dew Point 58 °F    
Average Humidity 77    
Maximum Humidity 94    
Minimum Humidity 42    
Precipitation  
Precipitation 0.28 in - - ()
Sea Level Pressure  
Sea Level Pressure 30.05 in    
Wind  
Wind Speed 7 mph (SE)    
Max Wind Speed 26 mph    
Max Gust Speed 33 mph    
Visibility 10 miles    
Events Rain , Thunderstorm    
Averages and records for this station are not official NWS values.
T = Trace of Precipitation, MM = Missing Value Source: NWS Daily Summary

Daily Weather History Graph

Daily Weather History Graph

Search for Another Location

Airport:

Trip Planner

Search our weather history database for the weather conditions in past years. The results will help you decide how hot, cold, wet, or windy it might be!

Date:

Astronomy

Jul. 24, 2014 Rise Set
Actual Time 5:55 AM CDT 8:59 PM CDT
Civil Twilight 5:20 AM CDT 9:34 PM CDT
Nautical Twilight 4:34 AM CDT 10:19 PM CDT
Astronomical Twilight 3:39 AM CDT 11:14 PM CDT
Moon 4:05 AM CDT (7/24) 7:13 PM CDT (7/24)
Length of Visible Light 16h 14m
Length of Day
15h 03m
Waning Crescent, 5% of the Moon is Illuminated
Jul 24
Waning Crescent
Jul 26
New
Aug 3
First Quarter
Aug 10
Full
Aug 17
Last Quarter

Hourly Weather History & Observations

Time (CDT) Temp. Dew Point Humidity Pressure Visibility Wind Dir Wind Speed Gust Speed Precip Events Conditions
12:14 AM 62.6 °F 55.4 °F 77% 30.20 in 10.0 mi NE 4.6 mph - N/A   Clear
12:34 AM 62.6 °F 55.4 °F 77% 30.20 in 10.0 mi NNE 3.5 mph - N/A   Clear
12:54 AM 62.6 °F 55.4 °F 77% 30.20 in 10.0 mi Calm Calm - N/A   Clear
1:14 AM 62.6 °F 55.4 °F 77% 30.19 in 10.0 mi East 3.5 mph - N/A   Clear
1:35 AM 62.6 °F 55.4 °F 77% 30.19 in 10.0 mi ENE 3.5 mph - N/A   Clear
1:54 AM 60.8 °F 55.4 °F 82% 30.19 in 10.0 mi East 4.6 mph - N/A   Clear
2:14 AM 62.6 °F 55.4 °F 77% 30.19 in 10.0 mi East 3.5 mph - N/A   Clear
2:54 AM 59.0 °F 55.4 °F 88% 30.18 in 10.0 mi ENE 4.6 mph - N/A   Clear
3:14 AM 59.0 °F 55.4 °F 88% 30.18 in 10.0 mi Calm Calm - N/A   Clear
3:34 AM 60.8 °F 55.4 °F 82% 30.18 in 10.0 mi ENE 3.5 mph - N/A   Clear
3:55 AM 57.2 °F 53.6 °F 88% 30.18 in 10.0 mi Calm Calm - N/A   Clear
4:14 AM 57.2 °F 53.6 °F 88% 30.17 in 10.0 mi East 3.5 mph - N/A   Clear
4:34 AM 55.4 °F 53.6 °F 94% 30.17 in 10.0 mi East 4.6 mph - N/A   Clear
4:54 AM 55.4 °F 53.6 °F 94% 30.17 in 10.0 mi East 4.6 mph - N/A   Clear
5:14 AM 55.4 °F 53.6 °F 94% 30.17 in 10.0 mi East 4.6 mph - N/A   Clear
5:35 AM 55.4 °F 53.6 °F 94% 30.16 in 10.0 mi East 5.8 mph - N/A   Clear
5:54 AM 55.4 °F 53.6 °F 94% 30.15 in 10.0 mi ESE 5.8 mph - N/A   Clear
6:15 AM 55.4 °F 53.6 °F 94% 30.16 in 10.0 mi ESE 3.5 mph - N/A   Clear
6:34 AM 55.4 °F 53.6 °F 94% 30.15 in 10.0 mi East 4.6 mph - N/A   Clear
6:54 AM 57.2 °F 55.4 °F 94% 30.14 in 10.0 mi East 4.6 mph - N/A   Clear
7:15 AM 59.0 °F 55.4 °F 88% 30.14 in 10.0 mi ESE 5.8 mph - N/A   Clear
7:34 AM 60.8 °F 57.2 °F 88% 30.14 in 10.0 mi ESE 4.6 mph - N/A   Clear
7:54 AM 60.8 °F 57.2 °F 88% 30.15 in 10.0 mi SE 4.6 mph - N/A   Clear
8:15 AM 64.4 °F 57.2 °F 77% 30.15 in 10.0 mi SSE 5.8 mph - N/A   Clear
8:34 AM 66.2 °F 57.2 °F 73% 30.14 in 10.0 mi SE 5.8 mph - N/A   Clear
8:54 AM 68.0 °F 57.2 °F 68% 30.13 in 10.0 mi SE 6.9 mph - N/A   Clear
9:15 AM 69.8 °F 57.2 °F 64% 30.13 in 10.0 mi SE 6.9 mph - N/A   Clear
9:34 AM 71.6 °F 57.2 °F 60% 30.13 in 10.0 mi SE 8.1 mph - N/A   Clear
9:54 AM 71.6 °F 55.4 °F 57% 30.11 in 10.0 mi SE 9.2 mph - N/A   Clear
10:15 AM 73.4 °F 55.4 °F 53% 30.10 in 10.0 mi SE 10.4 mph - N/A   Clear
10:34 AM 75.2 °F 53.6 °F 47% 30.09 in 10.0 mi SE 12.7 mph - N/A   Clear
10:54 AM 75.2 °F 53.6 °F 47% 30.10 in 10.0 mi SSE 11.5 mph - N/A   Clear
11:14 AM 75.2 °F 55.4 °F 50% 30.10 in 10.0 mi South 10.4 mph - N/A   Clear
11:34 AM 75.2 °F 55.4 °F 50% 30.09 in 10.0 mi SE 11.5 mph - N/A   Clear
11:54 AM 75.2 °F 55.4 °F 50% 30.07 in 10.0 mi SE 11.5 mph - N/A   Clear
12:14 PM 75.2 °F 55.4 °F 50% 30.07 in 10.0 mi SE 10.4 mph 16.1 mph N/A   Clear
12:34 PM 78.8 °F 53.6 °F 42% 30.06 in 10.0 mi SSE 9.2 mph - N/A   Clear
12:54 PM 77.0 °F 53.6 °F 44% 30.04 in 10.0 mi SSE 5.8 mph 16.1 mph N/A   Clear
1:15 PM 73.4 °F 55.4 °F 53% 30.04 in 10.0 mi SE 6.9 mph - N/A   Clear
1:34 PM 73.4 °F 55.4 °F 53% 30.06 in 10.0 mi ESE 3.5 mph - N/A   Scattered Clouds
1:54 PM 71.6 °F 57.2 °F 60% 30.17 in 10.0 mi West 10.4 mph - N/A Thunderstorm Thunderstorm
2:14 PM 68.0 °F 60.8 °F 78% 30.18 in 10.0 mi West 8.1 mph - 0.01 in Rain , Thunderstorm Thunderstorms and Rain
2:34 PM 64.4 °F 60.8 °F 88% 30.17 in 10.0 mi West 4.6 mph - 0.05 in Rain , Thunderstorm Thunderstorms and Rain
2:54 PM 64.4 °F 62.6 °F 94% 30.09 in 5.0 mi East 8.1 mph - 0.14 in Rain Heavy Rain
3:14 PM 62.6 °F 60.8 °F 94% 30.04 in 10.0 mi NE 4.6 mph - 0.06 in Rain Rain
3:34 PM 62.6 °F 60.8 °F 94% 29.97 in 10.0 mi East 15.0 mph - 0.11 in Rain Rain
3:55 PM 62.6 °F 60.8 °F 94% 29.87 in 10.0 mi SSE 24.2 mph 33.4 mph 0.14 in Rain Light Rain
4:14 PM 66.2 °F 62.6 °F 88% 29.86 in 10.0 mi SSE 23.0 mph 32.2 mph N/A   Clear
4:34 PM 71.6 °F 62.6 °F 73% 29.89 in 10.0 mi South 18.4 mph 29.9 mph N/A   Clear
4:54 PM 71.6 °F 62.6 °F 73% 29.89 in 10.0 mi South 24.2 mph 31.1 mph N/A   Clear
5:14 PM 71.6 °F 62.6 °F 73% 29.90 in 10.0 mi South 26.5 mph 33.4 mph N/A   Clear
5:34 PM 71.6 °F 62.6 °F 73% 29.90 in 10.0 mi South 24.2 mph 29.9 mph N/A   Clear
5:54 PM 71.6 °F 62.6 °F 73% 29.90 in 10.0 mi South 17.3 mph - N/A   Clear
6:14 PM 71.6 °F 62.6 °F 73% 29.91 in 10.0 mi South 13.8 mph 26.5 mph N/A   Clear
6:35 PM 69.8 °F 60.8 °F 73% 29.91 in 10.0 mi South 12.7 mph 16.1 mph N/A   Clear
6:54 PM 69.8 °F 60.8 °F 73% 29.92 in 10.0 mi South 10.4 mph - N/A   Clear
7:12 PM 71.6 °F 62.6 °F 73% 29.91 in 10.0 mi SSE 10.4 mph - N/A   Scattered Clouds
7:34 PM 71.6 °F 60.8 °F 69% 29.91 in 10.0 mi SSE 9.2 mph 17.3 mph N/A   Scattered Clouds
7:54 PM 71.6 °F 60.8 °F 69% 29.90 in 10.0 mi SE 11.5 mph - N/A   Scattered Clouds
8:14 PM 69.8 °F 60.8 °F 73% 29.91 in 10.0 mi SE 8.1 mph - N/A   Scattered Clouds
8:34 PM 68.0 °F 60.8 °F 78% 29.93 in 10.0 mi SE 4.6 mph - N/A   Scattered Clouds
8:54 PM 66.2 °F 60.8 °F 83% 29.94 in 10.0 mi SE 3.5 mph - N/A   Scattered Clouds
9:14 PM 66.2 °F 60.8 °F 83% 29.94 in 10.0 mi East 4.6 mph - N/A   Scattered Clouds
9:35 PM 64.4 °F 60.8 °F 88% 29.94 in 10.0 mi East 4.6 mph - N/A Rain Light Rain
9:54 PM 64.4 °F 60.8 °F 88% 29.94 in 10.0 mi ESE 5.8 mph - N/A   Mostly Cloudy
10:14 PM 64.4 °F 60.8 °F 88% 29.93 in 10.0 mi East 5.8 mph - N/A   Mostly Cloudy
10:34 PM 64.4 °F 60.8 °F 88% 29.91 in 10.0 mi ESE 4.6 mph - N/A   Scattered Clouds
10:54 PM 64.4 °F 60.8 °F 88% 29.88 in 10.0 mi SE 9.2 mph - N/A   Clear
11:15 PM 64.4 °F 60.8 °F 88% 29.86 in 10.0 mi SE 10.4 mph - N/A   Clear
11:34 PM 64.4 °F 60.8 °F 88% 29.86 in 10.0 mi SE 10.4 mph - N/A   Clear
11:54 PM 64.4 °F 60.8 °F 88% 29.84 in 10.0 mi SSE 17.3 mph - N/A   Clear